Tracking 29528 objects as of 13-Sep-2024
HD Live streaming from Space Station
objects crossing your sky now

FENGYUN 1C DEB

Track FENGYUN 1C DEB now!
10-day predictions


NORAD ID: 31348
Int'l Code: 1999-025BRC
Perigee: 779.3 km
Apogee: 829.0 km
Inclination: 99.1 °
Period: 100.8 minutes
Semi major axis: 7175 km
RCS: 0.0184 m2 (small)
Launch date: May 10, 1999
Source: People's Republic of China (PRC)
Launch site: Taiyaun Space Center, China (TSC)

Note: This is SATELLITE DEBRIS
Your satellite tracking list
Your tracking list is empty




NASA's NSSDC Master Catalog

Two Line Element Set (TLE):
1 31348U 99025BRC 24256.59406427  .00033874  00000-0  13409-1 0  9993
2 31348  99.0770 179.8344 0034581 313.7464 171.2501 14.28425114898563
Source of the keplerian elements: AFSPC